User: anonymous   Login
Location: Unspecified
(0.0000°N, 0.0000°E)
Time: 10:36:51
(UTC+00:00)
Language:

STARS - Orbit

View from above orbital plane
View from above orbital plane
View from above satellite
View from above satellite

Ground track
Ground track

The orbit data is extracted from the following two-line orbital elements,

1 33498U 09002G   20191.85512608 +.00000111 +00000-0 +22485-4 0  9994
2 33498 098.2612 057.6087 0011292 013.9769 346.1752 14.79154168616816
Epoch (UTC): 09 July 2020 20:31:22
Eccentricity: 0.0011292
inclination: 98.2612°
perigee height: 624 km
apogee height: 640 km
right ascension of ascending node: 57.6087°
argument of perigee: 13.9769°
revolutions per day: 14.79154168
mean anomaly at epoch: 346.1752°
orbit number at epoch: 61681

The dashed part of the orbit path shows where the satellite is in the earth's shadow,  

DLR